Regional Weather Roundup
Issued by NWS

Home | Current Version | Previous Version | Text Only | Print | Product List | Glossary On
Versions: 1 2 3 4 5 6 7 8 9 10 11 12 13 14 15 16 17 18 19 20 21 22 23 24 25 26 27 28 29 30 31 32 33 34 35 36 37 38 39 40 41 42 43 44 45 46 47 48 49 50
000
ASUS44 KFWD 250815
RWRTX
NORTH TEXAS HOURLY WEATHER ROUNDUP
NATIONAL WEATHER SERVICE FORT WORTH TX
200 AM CST SUN FEB 25 2018

NOTE: "FAIR" INDICATES FEW OR NO CLOUDS BELOW 12,000 FEET WITH NO
SIGNIFICANT WEATHER AND/OR OBSTRUCTIONS TO VISIBILITY.

TXZ118-119-250900-
DALLAS/FORT WORTH METROPLEX

CITY           SKY/WX    TMP DP  RH WIND       PRES   REMARKS
DFW AIRPORT    FAIR      47  43  86 NE3       30.00F
DALLAS LOVE    MOCLDY    48  44  86 E5        30.01F
FTW MEACHAM    FAIR      48  43  82 NE8       30.01F
DAL-EXECUTIVE  FAIR      48  45  89 NE6       30.01F
FTW-ALLIANCE   FAIR      43  41  93 N7        30.02F WCI  39
FTW-NAS-JRB    FAIR      43  40  89 W3        30.02F
FTW-SPINKS     FAIR      41  40  94 CALM      30.03S FOG
ARLINGTON      FAIR      40  40 100 CALM      30.02F
GRAND PRAIRIE  FAIR      46  46 100 CALM      30.03F
ADDISON        FAIR      48  42  80 E6        30.03F
MESQUITE       FAIR      45  45  98 N5        30.02F
LANCASTER      FAIR      46  44  95 N5        30.02F
$$

TXZ091>094-102>105-117-120-121-131>134-250900-
NORTH CENTRAL TEXAS

CITY           SKY/WX    TMP DP  RH WIND       PRES   REMARKS
SHRMAN/DENISON FAIR      41  37  87 E5        30.03F WCI  38
GAINESVILLE    FAIR      39  36  90 CALM      30.05F
BOWIE          FAIR      39  37  92 NE3       30.02S
BRIDGEPORT     FAIR      38  38 100 CALM      30.04F
DECATUR        FAIR      42  38  87 E7        30.01F WCI  38
DENTON         FAIR      42  41  96 CALM      30.02F
MCKINNEY       FAIR      44  42  93 N6        30.02F
BONHAM         FAIR      42  38  86 NE5       30.04F WCI  39
GREENVILLE     FAIR      50  45  81 N3        30.02F
ROCKWALL       FAIR      47  44  87 NE7       30.03F
TERRELL        FAIR      47  44  90 N8        30.01F
WAXAHACHIE       N/A     47  46  97 N6        30.02F
CLEBURNE       FAIR      43  43 100 NW6       30.02S WCI  39
GRANBURY       FAIR      38  37  94 CALM      30.03S
$$

TXZ083>090-098>101-113>116-127>130-139>142-154-155-250900-
WESTERN NORTH TEXAS

CITY           SKY/WX    TMP DP  RH WIND       PRES   REMARKS
WICHITA FALLS  FAIR      37  33  85 E5        30.01F WCI  33
WF-KICKAPOO    FAIR      38  35  90 CALM      30.04F
VERNON         FAIR      39  34  81 CALM      30.02S
ABILENE        FAIR      37  29  72 SE5       30.02S WCI  33
ABILENE-DYESS  FAIR      34  29  82 SW5       30.01F WCI  30
GRAHAM           N/A     37  32  82 CALM      30.01R
BRECKENRIDGE   FAIR      38  32  79 SE3       30.02R
CISCO          CLOUDY    45  19  36 NW3       30.02S
EASTLAND       FAIR      29  28  95 CALM      30.03R
RANGER         FAIR      35  24  64 CALM      30.02S
MINERAL WELLS  FAIR      38  36  92 NE3       30.01R
STEPHENVILLE   FAIR      40  37  87 CALM      30.04S
COMANCHE       FAIR      52  33  48 CALM      30.02F
BROWNWOOD      CLOUDY    41  36  81 CALM      30.03S
COLEMAN        FAIR      41  32  70 CALM      30.03S
$$

TXZ143>147-156>162-174-175-250900-
CENTRAL TEXAS

CITY           SKY/WX    TMP DP  RH WIND       PRES   REMARKS
WACO           FAIR      47  45  93 CALM      30.01R FOG
WACO-MCGREGOR  FAIR      49  48  97 CALM      30.02R
HILLSBORO      FAIR      51  47  88 CALM      30.00S
CORSICANA      FAIR      52  52 100 NE3       30.01F
MEXIA          FAIR      53  51  94 NE6       29.99F
HEARNE         MOCLDY    58  50  74 CALM      29.99F
CAMERON        CLOUDY    58  51  77 CALM      29.99R
TEMPLE         MOCLDY    53  52  96 N5        30.01R
KILLEEN        MOCLDY    52  51  96 N7        30.00R
KILLEEN-SKYLRK FAIR      53  52  96 N6        30.01R
GATESVILLE     FAIR      48  45  87 CALM      30.03R
HAMILTON       FAIR      47  42  83 NW5       30.02S
LAMPASAS       FAIR      50  46  83 N6        30.00S
$$

TXZ095>097-106>112-122>126-135>138-148>153-164>167-250900-
EAST TEXAS

CITY           SKY/WX    TMP DP  RH WIND       PRES   REMARKS
PARIS          FAIR      43  40  89 N7        30.03F WCI  39
SULPHUR SPRNGS FAIR      48  46  93 NE3       30.04F
MOUNT PLEASANT FAIR      49  47  90 N6        30.03F
GILMER         CLOUDY    51  51 100 CALM      30.01S
MINEOLA        FAIR      46  46 100 N3        30.02S
TYLER          FAIR      52  51  97 N5        30.00F
LONGVIEW       CLOUDY    56  55  97 N3        30.00S
MARSHALL       CLOUDY    53  50  90 CALM      30.03S
ATHENS         FAIR      46  46 100 N3        29.99F FOG
PALESTINE      FAIR      55  54  97 N3        30.01F
JACKSONVILLE   FAIR      54  54  98 NE6       30.02S
HENDERSON      FAIR      53  52  96 CALM      30.02S
CENTER         CLOUDY    56  54  93 NE3       30.02S
NACOGDOCHES    CLOUDY    58  51  78 VRB5      30.01R
LUFKIN         CLOUDY    59  51  75 NE6       29.99R
$$

SUPPLEMENTAL OBSERVATIONS (NWS FORT WORTH AREA)

CITY           SKY/WX    TMP DP  RH WIND       PRES   REMARKS
DENISON DAM      N/A     45  37  76 E1          N/A
CADDO GRASSLND   N/A     39  37  93 S1          N/A
PAT MAYSE LAKE   N/A     45  43  93 N1          N/A
LBJ GRASSLAND    N/A     43  37  81 NE7         N/A  WCI  39
POSSUM KINGDOM   N/A     41  27  56 E2          N/A
GRANBURY         N/A     37  36  93 W1          N/A
COMANCHE         N/A     52  30  43 CALM        N/A
MCGREGOR         N/A     50  46  87 NE1         N/A
TEMPLE           N/A     54  52  94 N6          N/A
LAKE LIMESTONE   N/A     55  50  82 N2          N/A
$$

SUPPLEMENTAL OBSERVATIONS (NWS NORMAN AREA)

CITY           SKY/WX    TMP DP  RH WIND       PRES   REMARKS
GOODLETT         N/A     36  33  89 S5        30.00S WCI  32
ODELL            N/A     38  35  90 SE9       30.02S WCI  31
CROWELL          N/A     38  36  94 SE2       30.02S
KNOX CITY        N/A     33  25  71 NW2       30.02S
SEYMOUR          N/A     37  34  89 E5        30.02S WCI  34
MILLERS CREEK    N/A     39  32  75 E5          N/A  WCI  36
$$

SUPPLEMENTAL OBSERVATIONS (NWS SAN ANGELO AREA)

CITY           SKY/WX    TMP DP  RH WIND       PRES   REMARKS
WEINERT          N/A     37  24  58 E10       30.02S WCI  30
HASKELL          N/A     39  22  50 NE9       30.02R WCI  33
THROCKMORTON     N/A     38  34  85 NE3       30.03S
STAMFORD         N/A     36  28  72 S6        30.03R WCI  31
CLYDE            N/A     46  13  25 E3        30.03S
HAMBY            N/A     37  25  60 SE3         N/A
IVIE RESERVOIR   N/A     45  36  70 S2          N/A
COLORADO BEND    N/A     46  43  87 W1          N/A
$$

SUPPLEMENTAL OBSERVATIONS (NWS SHREVEPORT AREA)

CITY           SKY/WX    TMP DP  RH WIND       PRES   REMARKS
CLARKSVILLE      N/A     45  39  81 N6          N/A
TEXARKANA        N/A     52  50  93 NW3         N/A
LINDEN           N/A     54  50  87 N1          N/A
GILMER           N/A     52  50  93 N1          N/A
HENDERSON        N/A     54  50  87 NE2         N/A
LUFKIN           N/A     57  50  77 MISG        N/A
N SABINE NF      N/A     55  54  94 MISG        N/A
S SABINE NF      N/A     54  50  87 E2          N/A
$$

SUPPLEMENTAL OBSERVATIONS ARE A COLLECTION OF AUTOMATED INSTRUMENTS
THAT ARE MAINTAINED BY A VARIETY OF FEDERAL AND STATE AGENCIES.
CERTAIN ELEMENTS...SUCH AS HUMIDITY VALUES AND SUSTAINED WIND
SPEEDS...MAY BE APPROXIMATED.





USA.gov is the U.S. government's official web portal to all federal, state and local government web resources and services.